j
k
j a
j l
ISS 1 25544U 98067A 07322.39853913 .00021536 00000-0 13729-3 0 3698 2 25544 051.6409 028.8063 0001860 173.1576 291.0603 15.76347226515105In Memory of Art
Show replies by date
[email protected]
Add to favorites Remove from favorites